AJISAI (EGS) (16908 NORAD) Tracking and Keplerian Element Data

This shows tracking and keplerian element data for the satellite.

Feedback or suggestion? Click here.




ElementValue
Catalog16908
NameAJISAI (EGS)
Epoch Orbit38832
Epoch Day159.84488514
Epoch Year2024
RAAN260.8399
Inclination50.0092
Eccentricity0.001141
Argument of Perigee98.9841
Mean Anonmoly48.1442
Mean Motion12.4450589
Decay Rate-5.8E-07
L11 16908U 86061A 24159.84488514 -.00000058 00000+0 27935-3 0 9990
L22 16908 50.0092 260.8399 0011410 98.9841 48.1442 12.44505890388320



Live tracking and technical data element details for AJISAI (EGS) (NORAD 16908). AJISAI (EGS) can be tracked NOW for your location showing map with azimuth and elevation plus other details from your city location.







IsCatalogInMostPopularTable: catalog: 16908, numindb: 940
Update: records affected: 1



GetName: 16908 AJISAI (EGS)

Hit Count: updated at: Tue, 17 Sep 2024 13:06:10 GMT